TimeAKDT,TemperatureF,Dew PointF,Humidity,Sea Level PressureIn,VisibilityMPH,Wind Direction,Wind SpeedMPH,Gust SpeedMPH,PrecipitationIn,Events,Conditions,WindDirDegrees,DateUTC
12:53 AM,43.0,37.9,82,29.75,10.0,NNW,3.5,-,N/A,,Clear,330,2011-10-03 08:53:00
1:53 AM,42.1,37.0,82,29.73,10.0,Calm,Calm,-,N/A,,Clear,0,2011-10-03 09:53:00
2:53 AM,42.1,37.0,82,29.70,10.0,Calm,Calm,-,N/A,,Clear,0,2011-10-03 10:53:00
3:53 AM,41.0,34.0,76,29.68,10.0,East,3.5,-,N/A,,Clear,80,2011-10-03 11:53:00
4:53 AM,41.0,36.0,82,29.65,10.0,NNW,3.5,-,N/A,,Clear,340,2011-10-03 12:53:00
5:53 AM,41.0,36.0,82,29.64,10.0,North,3.5,-,N/A,,Clear,360,2011-10-03 13:53:00
6:53 AM,42.1,36.0,79,29.61,10.0,Calm,Calm,-,N/A,,Overcast,0,2011-10-03 14:53:00
7:53 AM,42.1,35.1,76,29.60,10.0,North,3.5,-,N/A,,Overcast,360,2011-10-03 15:53:00
8:53 AM,44.1,36.0,73,29.59,10.0,Calm,Calm,-,N/A,,Overcast,0,2011-10-03 16:53:00
9:53 AM,46.9,37.9,71,29.56,10.0,North,3.5,-,N/A,,Overcast,360,2011-10-03 17:53:00
10:53 AM,48.9,37.9,66,29.54,10.0,NNW,6.9,-,N/A,,Overcast,330,2011-10-03 18:53:00
11:53 AM,53.1,28.9,40,29.52,10.0,ESE,10.4,-,N/A,,Overcast,110,2011-10-03 19:53:00
12:53 PM,53.1,28.0,38,29.50,10.0,ESE,6.9,-,N/A,,Mostly Cloudy,110,2011-10-03 20:53:00
1:53 PM,54.0,28.9,38,29.47,10.0,ESE,6.9,-,N/A,,Overcast,110,2011-10-03 21:53:00
2:53 PM,53.1,30.9,43,29.45,10.0,SE,9.2,-,N/A,,Overcast,130,2011-10-03 22:53:00
3:53 PM,52.0,33.1,49,29.43,10.0,Calm,Calm,-,N/A,,Overcast,0,2011-10-03 23:53:00
4:53 PM,51.8,30.2,44,29.40,10.0,East,8.1,-,N/A,,Overcast,100,2011-10-04 00:53:00
5:53 PM,52.0,33.1,49,29.38,10.0,ESE,5.8,-,N/A,,Overcast,120,2011-10-04 01:53:00
6:53 PM,50.0,37.0,61,29.35,10.0,NNW,4.6,-,N/A,,Scattered Clouds,330,2011-10-04 02:53:00
7:53 PM,48.0,36.0,63,29.33,10.0,North,3.5,-,N/A,,Scattered Clouds,350,2011-10-04 03:53:00
8:53 PM,48.9,39.9,71,29.31,10.0,WNW,4.6,-,N/A,,Partly Cloudy,300,2011-10-04 04:53:00
9:53 PM,46.9,39.9,77,29.28,10.0,NW,5.8,-,N/A,,Partly Cloudy,310,2011-10-04 05:53:00
10:53 PM,46.9,41.0,80,29.24,10.0,NNW,6.9,-,N/A,,Clear,330,2011-10-04 06:53:00
11:53 PM,45.0,37.9,76,29.21,10.0,Calm,Calm,-,N/A,,Partly Cloudy,0,2011-10-04 07:53:00